• In United Kingdom
  • List of Countries
  • For 7 days
  • Water Temperature
  • Satellite Maps
  • Weather Map
  • Weather Widgets
  • user-avatar
    Login

    Hourly Weather Konstantyna

    Today, 20 October, Friday

    Time Temperature Precipitation Wind Pressure Humidity
    00:00 +18°C° 1 mm 4 mps 707 mmHg 63%
    01:00 +17°C° 1.5 mm 3 mps 707 mmHg 68%
    02:00 +17°C° 1.5 mm 3 mps 707 mmHg 73%
    03:00 +16°C° 1.5 mm 3 mps 707 mmHg 78%
    04:00 +16°C° 1.7 mm 3 mps 708 mmHg 79%
    05:00 +14°C° 1.7 mm 3 mps 708 mmHg 81%
    06:00 +14°C° 1.7 mm 3 mps 708 mmHg 83%
    07:00 +14°C° 0.6 mm 3 mps 708 mmHg 81%
    08:00 +14°C° 0.6 mm 3 mps 709 mmHg 79%
    09:00 +14°C° 0.6 mm 3 mps 709 mmHg 78%
    10:00 +14°C° 0.2 mm 3 mps 710 mmHg 76%
    11:00 +16°C° 0.2 mm 3 mps 710 mmHg 75%
    12:00 +16°C° 0.2 mm 3 mps 710 mmHg 74%
    13:00 +16°C° 0.1 mm 3 mps 710 mmHg 72%
    14:00 +17°C° 0.1 mm 3 mps 710 mmHg 71%
    15:00 +17°C° 0.1 mm 4 mps 710 mmHg 69%
    16:00 +17°C° 0.1 mm 3 mps 711 mmHg 72%
    17:00 +17°C° 0.1 mm 3 mps 711 mmHg 75%
    18:00 +16°C° 0.1 mm 2 mps 711 mmHg 78%
    19:00 +16°C° 0 mm 2 mps 712 mmHg 80%
    20:00 +15°C° 0 mm 2 mps 712 mmHg 82%
    21:00 +15°C° 0 mm 1 mps 713 mmHg 84%
    22:00 +15°C° 0 mm 1 mps 713 mmHg 84%
    23:00 +15°C° 0 mm 1 mps 712 mmHg 85%

    Tomorrow, 21 October, Saturday

    Time Temperature Precipitation Wind Pressure Humidity
    00:00 +15°C° 0 mm 1 mps 712 mmHg 85%
    01:00 +14°C° 0 mm 1 mps 712 mmHg 85%
    02:00 +14°C° 0 mm 1 mps 712 mmHg 86%
    03:00 +14°C° 0 mm 1 mps 712 mmHg 86%
    04:00 +14°C° 0 mm 1 mps 712 mmHg 86%
    05:00 +14°C° 0 mm 1 mps 713 mmHg 85%
    06:00 +14°C° 0 mm 1 mps 713 mmHg 85%
    07:00 +15°C° 0 mm 1 mps 713 mmHg 79%
    08:00 +16°C° 0 mm 1 mps 714 mmHg 74%
    09:00 +19°C° 0 mm 1 mps 715 mmHg 68%
    10:00 +20°C° 0 mm 1 mps 715 mmHg 66%
    11:00 +20°C° 0 mm 1 mps 715 mmHg 63%
    12:00 +21°C° 0 mm 1 mps 714 mmHg 61%
    13:00 +20°C° 0 mm 2 mps 714 mmHg 60%
    14:00 +21°C° 0 mm 2 mps 714 mmHg 59%
    15:00 +21°C° 0 mm 2 mps 714 mmHg 59%
    16:00 +20°C° 0 mm 2 mps 714 mmHg 63%
    17:00 +21°C° 0 mm 1 mps 714 mmHg 67%
    18:00 +20°C° 0 mm 1 mps 714 mmHg 71%
    19:00 +19°C° 0 mm 1 mps 714 mmHg 75%
    20:00 +19°C° 0 mm 1 mps 715 mmHg 78%
    21:00 +18°C° 0 mm 1 mps 715 mmHg 82%
    22:00 +16°C° 0 mm 0 mps 715 mmHg 83%
    23:00 +16°C° 0 mm 0 mps 714 mmHg 84%

    Day after tomorrow, 22 October, Sunday

    Time Temperature Precipitation Wind Pressure Humidity
    00:00 +15°C° 0 mm 0 mps 714 mmHg 85%
    01:00 +15°C° 0 mm 0 mps 714 mmHg 85%
    02:00 +15°C° 0 mm 0 mps 714 mmHg 85%
    03:00 +15°C° 0 mm 0 mps 713 mmHg 85%
    04:00 +16°C° 0 mm 1 mps 713 mmHg 85%
    05:00 +15°C° 0 mm 1 mps 713 mmHg 85%
    06:00 +15°C° 0 mm 1 mps 713 mmHg 84%
    07:00 +18°C° 0 mm 1 mps 714 mmHg 76%
    08:00 +20°C° 0 mm 1 mps 714 mmHg 67%
    09:00 +21°C° 0 mm 2 mps 715 mmHg 59%
    10:00 +21°C° 0 mm 2 mps 715 mmHg 55%
    11:00 +22°C° 0 mm 3 mps 715 mmHg 52%
    12:00 +23°C° 0 mm 4 mps 714 mmHg 48%
    13:00 +23°C° 0 mm 4 mps 714 mmHg 49%
    14:00 +23°C° 0 mm 4 mps 714 mmHg 51%
    15:00 +22°C° 0 mm 4 mps 713 mmHg 52%
    16:00 +21°C° 0.1 mm 3 mps 713 mmHg 59%
    17:00 +20°C° 0.1 mm 3 mps 713 mmHg 66%
    18:00 +19°C° 0.1 mm 3 mps 714 mmHg 72%
    19:00 +18°C° 0.1 mm 2 mps 714 mmHg 76%
    20:00 +18°C° 0.1 mm 2 mps 714 mmHg 81%
    21:00 +17°C° 0.1 mm 2 mps 714 mmHg 85%
    22:00 +17°C° 0.1 mm 2 mps 714 mmHg 86%
    23:00 +18°C° 0.1 mm 1 mps 714 mmHg 87%

    23 October, Monday

    Time Temperature Precipitation Wind Pressure Humidity
    00:00 +16°C° 0.1 mm 1 mps 714 mmHg 88%
    01:00 +16°C° 0.2 mm 1 mps 714 mmHg 88%
    02:00 +16°C° 0.2 mm 1 mps 714 mmHg 87%
    03:00 +16°C° 0.2 mm 1 mps 714 mmHg 87%
    04:00 +16°C° 0.1 mm 1 mps 714 mmHg 88%
    05:00 +16°C° 0.1 mm 1 mps 714 mmHg 89%
    06:00 +15°C° 0.1 mm 1 mps 714 mmHg 89%
    07:00 +16°C° 0.1 mm 2 mps 714 mmHg 84%
    08:00 +17°C° 0.1 mm 2 mps 714 mmHg 78%
    09:00 +17°C° 0.1 mm 3 mps 715 mmHg 73%
    10:00 +18°C° 0 mm 3 mps 715 mmHg 67%
    11:00 +19°C° 0 mm 4 mps 715 mmHg 61%
    12:00 +20°C° 0 mm 5 mps 714 mmHg 55%
    13:00 +19°C° 0 mm 5 mps 714 mmHg 56%
    14:00 +19°C° 0 mm 5 mps 714 mmHg 56%
    15:00 +19°C° 0 mm 5 mps 714 mmHg 57%
    16:00 +17°C° 0 mm 5 mps 714 mmHg 63%
    17:00 +17°C° 0 mm 4 mps 714 mmHg 69%
    18:00 +16°C° 0 mm 3 mps 714 mmHg 74%
    19:00 +16°C° 0 mm 3 mps 714 mmHg 77%
    20:00 +14°C° 0 mm 3 mps 714 mmHg 79%
    21:00 +14°C° 0 mm 3 mps 714 mmHg 81%
    22:00 +14°C° 0 mm 3 mps 714 mmHg 82%
    23:00 +14°C° 0 mm 2 mps 714 mmHg 84%

    24 October, Tuesday

    Time Temperature Precipitation Wind Pressure Humidity
    00:00 +14°C° 0 mm 2 mps 714 mmHg 86%
    01:00 +14°C° 0 mm 2 mps 714 mmHg 86%
    02:00 +14°C° 0 mm 2 mps 714 mmHg 87%
    03:00 +14°C° 0 mm 2 mps 713 mmHg 87%
    04:00 +13°C° 0 mm 2 mps 713 mmHg 88%
    05:00 +13°C° 0 mm 2 mps 713 mmHg 89%
    06:00 +13°C° 0 mm 2 mps 713 mmHg 90%
    07:00 +14°C° 0 mm 2 mps 714 mmHg 83%
    08:00 +15°C° 0 mm 2 mps 714 mmHg 77%
    09:00 +17°C° 0 mm 3 mps 715 mmHg 70%
    10:00 +17°C° 0 mm 3 mps 715 mmHg 67%
    11:00 +18°C° 0 mm 3 mps 715 mmHg 64%
    12:00 +19°C° 0 mm 4 mps 714 mmHg 61%
    13:00 +19°C° 0 mm 4 mps 714 mmHg 61%
    14:00 +19°C° 0 mm 4 mps 714 mmHg 60%
    15:00 +19°C° 0 mm 4 mps 714 mmHg 60%
    16:00 +18°C° 0 mm 3 mps 714 mmHg 66%
    17:00 +17°C° 0 mm 3 mps 714 mmHg 72%
    18:00 +16°C° 0 mm 2 mps 714 mmHg 78%
    19:00 +16°C° 0 mm 2 mps 714 mmHg 81%
    20:00 +15°C° 0 mm 2 mps 714 mmHg 83%
    21:00 +15°C° 0 mm 1 mps 714 mmHg 86%
    22:00 +15°C° 0 mm 1 mps 714 mmHg 86%
    23:00 +14°C° 0 mm 1 mps 714 mmHg 87%

    25 October, Wednesday

    Time Temperature Precipitation Wind Pressure Humidity
    00:00 +14°C° 0 mm 1 mps 714 mmHg 87%
    01:00 +14°C° 0 mm 1 mps 714 mmHg 87%
    02:00 +13°C° 0 mm 1 mps 714 mmHg 87%
    03:00 +13°C° 0 mm 1 mps 714 mmHg 87%
    04:00 +13°C° 0 mm 1 mps 714 mmHg 88%
    05:00 +13°C° 0 mm 1 mps 714 mmHg 88%
    06:00 +13°C° 0 mm 1 mps 714 mmHg 88%
    07:00 +14°C° 0 mm 1 mps 714 mmHg 80%
    08:00 +16°C° 0 mm 1 mps 714 mmHg 72%
    09:00 +19°C° 0 mm 1 mps 715 mmHg 64%
    10:00 +20°C° 0 mm 1 mps 715 mmHg 58%
    11:00 +21°C° 0 mm 1 mps 715 mmHg 51%
    12:00 +22°C° 0 mm 1 mps 714 mmHg 45%
    13:00 +21°C° 0 mm 2 mps 714 mmHg 44%
    14:00 +23°C° 0 mm 2 mps 714 mmHg 44%
    15:00 +23°C° 0 mm 2 mps 714 mmHg 44%
    16:00 +20°C° 0 mm 2 mps 714 mmHg 52%
    17:00 +19°C° 0 mm 2 mps 714 mmHg 60%
    18:00 +18°C° 0 mm 2 mps 714 mmHg 69%
    19:00 +18°C° 0 mm 1 mps 714 mmHg 73%
    20:00 +16°C° 0 mm 1 mps 715 mmHg 78%
    21:00 +16°C° 0 mm 1 mps 715 mmHg 83%
    22:00 +15°C° 0 mm 1 mps 715 mmHg 86%
    23:00 +15°C° 0 mm 1 mps 715 mmHg 88%
    Show more